Overview Statistics Trail Chart Weather Telemetry Raw packets
 

This is the latest recevied weather packets stored in our database for station/object SV1JSO-13. If no packets are shown the sender has not sent any weather packets the latest 10 day(s).

<< 91 92 93 94 95 96 97 >>
Time Temp. Humidity Pressure Rain* Wind** Luminosity Snow
1787990100 27.78° C 38% 1011.3 hPa 0 mm - 502 W/m² -
1787989800 27.22° C 39% 1011.3 hPa 0 mm - 489 W/m² -
1787989500 27.22° C 39% 1011.4 hPa 0 mm - 478 W/m² -
1787989200 27.22° C 38% 1011.4 hPa 0 mm - 469 W/m² -
1787988900 27.22° C 37% 1011.4 hPa 0 mm - 454 W/m² -
1787988600 27.22° C 37% 1011.5 hPa 0 mm - 449 W/m² -
1787988300 27.22° C 38% 1011.4 hPa 0 mm - 435 W/m² -
1787988000 27.22° C 39% 1011.4 hPa 0 mm - 422 W/m² -
1787987700 27.22° C 40% 1011.6 hPa 0 mm - 406 W/m² -
1787987401 26.67° C 41% 1011.5 hPa 0 mm - 389 W/m² -
1787987100 26.67° C 41% 1011.5 hPa 0 mm - 379 W/m² -
1787986800 26.11° C 41% 1011.5 hPa 0 mm - 370 W/m² -
1787986500 26.11° C 41% 1011.3 hPa 0 mm - 358 W/m² -
1787986200 26.11° C 40% 1011.4 hPa 0 mm - 347 W/m² -
1787985900 26.67° C 39% 1011.3 hPa 0 mm - 336 W/m² -
1787985600 26.11° C 39% 1011.2 hPa 0 mm - 323 W/m² -
1787985300 26.11° C 41% 1011.1 hPa 0 mm - 310 W/m² -
1787985000 25.56° C 42% 1011 hPa 0 mm - 293 W/m² -
1787984700 25.56° C 40% 1011.2 hPa 0 mm - 279 W/m² -
1787984400 25.56° C 41% 1011.2 hPa 0 mm - 268 W/m² -
1787984100 25.56° C 43% 1011 hPa 0 mm - 255 W/m² -
1787983800 25.56° C 44% 1011.1 hPa 0 mm - 241 W/m² -
1787983500 25.56° C 44% 1011 hPa 0 mm - 227 W/m² -
1787983200 25.56° C 44% 1011.1 hPa 0 mm - 214 W/m² -
1787982900 25.56° C 44% 1010.9 hPa 0 mm - 201 W/m² -

* Rain latest hour (hover to see other rain measurements)
** Current wind speed in m/s (hover to see current wind gust speed)